DLH2GY ENZV-ENAL

Flight info

Callsign DLH2GY
Flight time 0h 43m
Altitude 29000
Route GEDLU DCT TUMIM
Aircraft A320/M-SDE3FGHIRWY/LB1

Departure

Time 2026-05-06 18:05
Airport Stavanger Airport, Sola (ENZV)

Arrival

Time 2026-05-06 18:48
Airport Ålesund Airport (ENAL)
Time Latitude Longitude Altitude Speed Heading
2026-05-06 17:30 58.88161 5.63065 28 ft 0 kts 315°
2026-05-06 17:54 58.88144 5.63097 30 ft 4 kts 315°
2026-05-06 17:54 58.88125 5.63134 31 ft 4 kts 315°
2026-05-06 17:54 58.88109 5.63164 27 ft 1 kts 314°
2026-05-06 17:57 58.88111 5.63160 27 ft 3 kts 312°
2026-05-06 17:57 58.88103 5.63144 27 ft 1 kts 204°
2026-05-06 17:58 58.88084 5.63138 27 ft 7 kts 191°
2026-05-06 17:58 58.88052 5.63165 28 ft 4 kts 120°
2026-05-06 17:58 58.88037 5.63219 29 ft 10 kts 120°
2026-05-06 17:58 58.87998 5.63321 30 ft 8 kts 126°
2026-05-06 17:59 58.87963 5.63370 32 ft 6 kts 167°
2026-05-06 17:59 58.87911 5.63341 30 ft 9 kts 204°
2026-05-06 17:59 58.87855 5.63296 31 ft 8 kts 199°
2026-05-06 17:59 58.87800 5.63289 31 ft 8 kts 179°
2026-05-06 18:00 58.87709 5.63293 32 ft 18 kts 178°
2026-05-06 18:00 58.87586 5.63297 31 ft 17 kts 180°
2026-05-06 18:00 58.87466 5.63300 31 ft 17 kts 179°
2026-05-06 18:00 58.87355 5.63304 32 ft 16 kts 179°
2026-05-06 18:01 58.87246 5.63306 31 ft 15 kts 180°
2026-05-06 18:01 58.87143 5.63304 32 ft 14 kts 180°
2026-05-06 18:01 58.87050 5.63318 33 ft 13 kts 163°
2026-05-06 18:01 58.86973 5.63413 31 ft 13 kts 137°
2026-05-06 18:02 58.86950 5.63556 34 ft 7 kts 91°
2026-05-06 18:02 58.86950 5.63583 35 ft 0 kts 90°
2026-05-06 18:04 58.86950 5.63585 35 ft 1 kts 90°
2026-05-06 18:04 58.86951 5.63700 37 ft 14 kts 88°
2026-05-06 18:04 58.86977 5.63803 36 ft 3 kts
2026-05-06 18:04 58.86999 5.63802 36 ft 6 kts 359°
2026-05-06 18:05 58.87146 5.63798 35 ft 54 kts 359°
2026-05-06 18:05 58.87784 5.63778 33 ft 125 kts 359°
2026-05-06 18:05 58.88790 5.63743 447 ft 144 kts 358°
2026-05-06 18:05 58.89790 5.63718 1368 ft 145 kts 356°
2026-05-06 18:06 58.90851 5.63696 1986 ft 163 kts 357°
2026-05-06 18:06 58.92052 5.63673 2536 ft 184 kts 358°
2026-05-06 18:06 58.93432 5.63638 3082 ft 210 kts 359°
2026-05-06 18:06 58.94971 5.63590 3781 ft 232 kts 358°
2026-05-06 18:07 58.96656 5.63520 4624 ft 248 kts 358°
2026-05-06 18:07 58.98385 5.63449 5788 ft 250 kts 358°
2026-05-06 18:07 59.00128 5.63405 6787 ft 257 kts 358°
2026-05-06 18:07 59.01930 5.63358 7820 ft 261 kts 357°
2026-05-06 18:08 59.03775 5.63303 8784 ft 268 kts 356°
2026-05-06 18:08 59.05654 5.63248 9866 ft 271 kts 356°
2026-05-06 18:08 59.07595 5.63194 10468 ft 291 kts 356°
2026-05-06 18:08 59.09709 5.63195 10849 ft 315 kts 358°
2026-05-06 18:09 59.11945 5.63340 11306 ft 335 kts 359°
2026-05-06 18:09 59.14331 5.63566 11884 ft 348 kts 359°
2026-05-06 18:09 59.16772 5.63803 12757 ft 352 kts 358°
2026-05-06 18:09 59.19247 5.64016 13562 ft 358 kts 357°
2026-05-06 18:10 59.21730 5.64197 14314 ft 363 kts 356°
2026-05-06 18:10 59.24272 5.64350 15022 ft 368 kts 356°
2026-05-06 18:10 59.26864 5.64502 15654 ft 376 kts 357°
2026-05-06 18:10 59.29497 5.64855 16453 ft 380 kts 358°
2026-05-06 18:11 59.32114 5.65312 17195 ft 385 kts 359°
2026-05-06 18:11 59.33900 5.65655 17669 ft 388 kts 359°
2026-05-06 18:11 59.37517 5.66421 18353 ft 393 kts 359°
2026-05-06 18:11 59.40220 5.67028 18803 ft 396 kts 359°
2026-05-06 18:12 59.42973 5.67654 19151 ft 398 kts 359°
2026-05-06 18:12 59.45735 5.68240 19402 ft 399 kts 359°
2026-05-06 18:12 59.48506 5.68779 19671 ft 399 kts 358°
2026-05-06 18:12 59.51277 5.69271 19957 ft 401 kts 357°
2026-05-06 18:13 59.54031 5.69718 20035 ft 401 kts 357°
2026-05-06 18:13 59.56820 5.70175 20035 ft 401 kts 357°
2026-05-06 18:13 59.59600 5.70651 20047 ft 402 kts 357°
2026-05-06 18:13 59.62389 5.71171 20074 ft 402 kts 358°
2026-05-06 18:14 59.65150 5.71717 20223 ft 406 kts 358°
2026-05-06 18:14 59.67959 5.72270 21029 ft 405 kts 358°
2026-05-06 18:14 59.70775 5.72816 21708 ft 407 kts 357°
2026-05-06 18:14 59.73623 5.73358 22200 ft 414 kts 357°
2026-05-06 18:15 59.76472 5.73897 22666 ft 419 kts 356°
2026-05-06 18:15 59.79393 5.74455 23217 ft 423 kts 356°
2026-05-06 18:15 59.82332 5.75017 23771 ft 425 kts 356°
2026-05-06 18:15 59.85284 5.75577 24268 ft 427 kts 356°
2026-05-06 18:16 59.88262 5.76150 24653 ft 432 kts 356°
2026-05-06 18:16 59.91236 5.76738 25059 ft 435 kts 356°
2026-05-06 18:16 59.94267 5.77353 25472 ft 438 kts 356°
2026-05-06 18:16 59.97318 5.77977 25903 ft 441 kts 356°
2026-05-06 18:17 60.00379 5.78603 26317 ft 444 kts 356°
2026-05-06 18:17 60.03482 5.79216 26608 ft 449 kts 356°
2026-05-06 18:17 60.06571 5.79797 26927 ft 454 kts 356°
2026-05-06 18:17 60.09738 5.80366 27276 ft 457 kts 356°
2026-05-06 18:18 60.12930 5.80939 27650 ft 460 kts 356°
2026-05-06 18:18 60.16129 5.81535 28044 ft 463 kts 356°
2026-05-06 18:18 60.19313 5.82150 28279 ft 465 kts 357°
2026-05-06 18:18 60.22549 5.82800 28545 ft 468 kts 357°
2026-05-06 18:19 60.25801 5.83478 28843 ft 470 kts 357°
2026-05-06 18:19 60.29023 5.84172 29035 ft 472 kts 358°
2026-05-06 18:19 60.35523 5.85502 29027 ft 466 kts 357°
2026-05-06 18:20 60.41931 5.86713 29068 ft 465 kts 357°
2026-05-06 18:20 60.48376 5.88041 29069 ft 464 kts 358°
2026-05-06 18:21 60.54815 5.89367 29049 ft 464 kts 358°
2026-05-06 18:21 60.61197 5.90669 29062 ft 463 kts 358°
2026-05-06 18:22 60.67624 5.91984 29058 ft 462 kts 358°
2026-05-06 18:22 60.74002 5.93256 29089 ft 462 kts 358°
2026-05-06 18:23 60.80412 5.94528 29046 ft 466 kts 358°
2026-05-06 18:23 60.86887 5.95875 29033 ft 464 kts 359°
2026-05-06 18:24 60.93245 5.97258 29064 ft 460 kts 359°
2026-05-06 18:24 60.99639 5.98563 29030 ft 461 kts 359°
2026-05-06 18:25 61.05975 5.99797 29048 ft 459 kts 359°
2026-05-06 18:25 61.12348 6.01166 29036 ft 459 kts 360°
2026-05-06 18:26 61.18670 6.02582 29062 ft 458 kts 360°
2026-05-06 18:26 61.25018 6.03866 29043 ft 457 kts 359°
2026-05-06 18:27 61.31355 6.05058 29056 ft 456 kts 359°
2026-05-06 18:27 61.37658 6.06264 29018 ft 456 kts
2026-05-06 18:28 61.43939 6.07687 29025 ft 456 kts
2026-05-06 18:28 61.50270 6.09141 28992 ft 457 kts
2026-05-06 18:29 61.53408 6.09813 28710 ft 461 kts
2026-05-06 18:29 61.56606 6.10466 28422 ft 462 kts
2026-05-06 18:29 61.59810 6.11098 28143 ft 459 kts
2026-05-06 18:29 61.62970 6.11750 27660 ft 450 kts
2026-05-06 18:30 61.66057 6.12449 26989 ft 442 kts
2026-05-06 18:30 61.69087 6.13145 25898 ft 444 kts
2026-05-06 18:30 61.72160 6.13826 25135 ft 439 kts
2026-05-06 18:30 61.74165 6.14270 24826 ft 431 kts
2026-05-06 18:31 61.77133 6.14931 24180 ft 425 kts
2026-05-06 18:31 61.81012 6.15786 23209 ft 420 kts
2026-05-06 18:31 61.82971 6.16213 22664 ft 417 kts
2026-05-06 18:31 61.85809 6.16831 21951 ft 412 kts
2026-05-06 18:32 61.88645 6.17444 21396 ft 404 kts
2026-05-06 18:32 61.91425 6.18069 20891 ft 397 kts
2026-05-06 18:32 61.94129 6.18703 20356 ft 392 kts
2026-05-06 18:32 61.96836 6.19343 19812 ft 388 kts
2026-05-06 18:33 61.99517 6.20002 19259 ft 386 kts
2026-05-06 18:33 62.02092 6.21335 18737 ft 384 kts 16°
2026-05-06 18:33 62.04552 6.23519 18228 ft 382 kts 23°
2026-05-06 18:33 62.06959 6.25861 17615 ft 379 kts 22°
2026-05-06 18:34 62.09356 6.28185 17051 ft 375 kts 23°
2026-05-06 18:34 62.11713 6.30492 16604 ft 369 kts 23°
2026-05-06 18:34 62.13994 6.32744 16148 ft 364 kts 23°
2026-05-06 18:34 62.14644 6.33389 16010 ft 363 kts 23°
2026-05-06 18:35 62.16843 6.35573 15479 ft 361 kts 23°
2026-05-06 18:35 62.19127 6.37826 14939 ft 359 kts 23°
2026-05-06 18:35 62.21362 6.40028 14429 ft 356 kts 23°
2026-05-06 18:35 62.23617 6.42261 13788 ft 358 kts 23°
2026-05-06 18:36 62.25885 6.44516 13072 ft 359 kts 23°
2026-05-06 18:36 62.28148 6.46752 12596 ft 353 kts 22°
2026-05-06 18:36 62.30339 6.48913 12196 ft 347 kts 23°
2026-05-06 18:36 62.32541 6.51103 11447 ft 349 kts 23°
2026-05-06 18:37 62.34748 6.53273 10881 ft 346 kts 22°
2026-05-06 18:37 62.36890 6.55361 10523 ft 336 kts 22°
2026-05-06 18:37 62.38999 6.57381 10268 ft 325 kts 22°
2026-05-06 18:37 62.41034 6.59299 10063 ft 314 kts 21°
2026-05-06 18:38 62.43006 6.61132 9908 ft 302 kts 21°
2026-05-06 18:38 62.44883 6.62880 9735 ft 292 kts 21°
2026-05-06 18:38 62.46698 6.64713 9521 ft 284 kts 24°
2026-05-06 18:38 62.48445 6.66636 9200 ft 280 kts 25°
2026-05-06 18:39 62.50138 6.68556 8876 ft 276 kts 25°
2026-05-06 18:39 62.51845 6.70455 8353 ft 275 kts 25°
2026-05-06 18:39 62.53558 6.72317 7702 ft 272 kts 24°
2026-05-06 18:40 62.56918 6.75353 7244 ft 252 kts
2026-05-06 18:40 62.58606 6.75467 7016 ft 242 kts 350°
2026-05-06 18:40 62.60214 6.74582 6649 ft 235 kts 333°
2026-05-06 18:40 62.61684 6.73074 6308 ft 232 kts 330°
2026-05-06 18:41 62.63119 6.71594 6001 ft 230 kts 330°
2026-05-06 18:41 62.64565 6.70136 5709 ft 227 kts 331°
2026-05-06 18:41 62.65932 6.68533 5374 ft 221 kts 315°
2026-05-06 18:41 62.66765 6.65877 5127 ft 207 kts 286°
2026-05-06 18:42 62.66975 6.62917 4990 ft 191 kts 263°
2026-05-06 18:42 62.66666 6.60272 4893 ft 177 kts 243°
2026-05-06 18:42 62.66147 6.57879 4747 ft 172 kts 244°
2026-05-06 18:42 62.65649 6.55535 4516 ft 169 kts 244°
2026-05-06 18:43 62.65152 6.53223 4285 ft 168 kts 244°
2026-05-06 18:43 62.64667 6.50957 4039 ft 167 kts 244°
2026-05-06 18:43 62.64181 6.48668 3793 ft 166 kts 244°
2026-05-06 18:43 62.63693 6.46405 3575 ft 164 kts 243°
2026-05-06 18:44 62.63219 6.44209 3408 ft 159 kts 244°
2026-05-06 18:44 62.62758 6.42061 3244 ft 156 kts 243°
2026-05-06 18:44 62.62289 6.39888 2968 ft 160 kts 243°
2026-05-06 18:44 62.61826 6.37723 2732 ft 160 kts 244°
2026-05-06 18:45 62.61354 6.35523 2481 ft 160 kts 243°
2026-05-06 18:45 62.60880 6.33340 2234 ft 155 kts 243°
2026-05-06 18:45 62.60445 6.31304 2008 ft 142 kts 243°
2026-05-06 18:45 62.60053 6.29491 1864 ft 125 kts 243°
2026-05-06 18:46 62.59693 6.27827 1678 ft 120 kts 243°
2026-05-06 18:46 62.59342 6.26206 1502 ft 117 kts 243°
2026-05-06 18:46 62.58990 6.24602 1348 ft 118 kts 243°
2026-05-06 18:46 62.58646 6.23010 1186 ft 119 kts 243°
2026-05-06 18:47 62.58289 6.21375 1043 ft 120 kts 243°
2026-05-06 18:47 62.57931 6.19739 842 ft 120 kts 245°
2026-05-06 18:47 62.57582 6.18135 657 ft 118 kts 246°
2026-05-06 18:47 62.57234 6.16540 495 ft 116 kts 245°
2026-05-06 18:48 62.56882 6.14916 324 ft 122 kts 244°
2026-05-06 18:48 62.56523 6.13227 146 ft 124 kts 245°
2026-05-06 18:48 62.56172 6.11614 74 ft 105 kts 245°
2026-05-06 18:48 62.55974 6.10700 73 ft 26 kts 245°
2026-05-06 18:49 62.55935 6.10527 67 ft 8 kts 189°
2026-05-06 18:49 62.55927 6.10549 69 ft 0 kts 80°
2026-05-06 18:49 62.55933 6.10573 66 ft 4 kts 59°
2026-05-06 18:49 62.55944 6.10685 75 ft 10 kts 105°
2026-05-06 18:50 62.55926 6.10820 72 ft 9 kts 105°
2026-05-06 18:50 62.55912 6.10930 66 ft 6 kts 105°
2026-05-06 18:50 62.55901 6.11015 73 ft 6 kts 105°
2026-05-06 18:50 62.55896 6.11100 68 ft 6 kts 83°
2026-05-06 18:51 62.55913 6.11197 69 ft 8 kts 66°
2026-05-06 18:51 62.55934 6.11297 74 ft 6 kts 64°
2026-05-06 18:51 62.55931 6.11341 73 ft 3 kts 133°
2026-05-06 18:51 62.55913 6.11363 75 ft 3 kts 151°
2026-05-06 18:52 62.55898 6.11379 72 ft 1 kts 153°
2026-05-06 18:52 62.55893 6.11384 73 ft 1 kts 154°
2026-05-06 18:52 62.55892 6.11386 73 ft 0 kts 154°